Location: Unnamed
(51.5169°N, 0.1311°W)
Time: 20:23:08
(UTC+01:00)

Tiros 1 - Pass Details

Date: 15 August 2024
Orbit: 623 x 655 km, 48.4° (Epoch: 16 September)

Event Time Altitude Azimuth Distance (km) Brightness Sun altitude
Rises 08:05:15 0° 271° (W) 2,980 9.9 20.2°
Reaches altitude 10° 08:07:38 10° 267° (W) 2,068 9.2 20.5°
Maximum altitude 08:12:18 55° 190° (S) 788 7.9 21.3°
Drops below altitude 10° 08:16:56 10° 113° (ESE) 2,059 11.3 22.0°
Sets 08:19:18 0° 109° (ESE) 2,965 11.9 22.3°
